{"data":{"norad_id":65109,"intl_designator":"2025-168D","name":"HULIANWANG DIGUI-52","alt_names":[],"object_type":"PAYLOAD","status":"ACTIVE","operator":null,"country":"PRC","launch_date":"2025-08-04","launch_site_code":"WSC","launch_vehicle":null,"mission":null,"orbit_class":"UNKNOWN","rcs_meters":null,"size_class":null,"mass_kg":null,"dimensions":null,"purposes":[],"wikipedia_slug":null,"has_3d_model":false,"image_url":null,"decayed_at":null,"tle_current":{"epoch":"2026-09-21T17:48:25.772544Z","epoch_age_seconds":57893,"freshness":"FRESH","line1":"1 65109U 25168D   26264.74196496 -.00000082  00000+0  90240-4 0  9998","line2":"2 65109  50.0051 339.4379 0009615  29.1034 331.0372 13.29327351 55535","mean_motion":13.29327351,"eccentricity":0.0009615,"inclination_deg":50.0051,"raan_deg":339.4379,"arg_perigee_deg":29.1034,"mean_anomaly_deg":331.0372,"bstar":9.024e-5,"rev_number":5553,"period_min":108.32546241652,"perigee_km":1142.063839651,"apogee_km":1156.5391038322,"semimajor_km":7527.4384717416,"source":"CELESTRAK","updated_at":"2026-09-22T09:00:30.137516Z"}}}